CZ-6A DEB, 61354

Orbit data source: Space-Track

CZ-6A DEB, 61354 is space debris in LEO originally from a launch on Tue, 06 Aug 2024 UTC launched from the Taiyaun Space Center, China (TSC). Debris objects in space refer to the collection of defunct objects orbiting the Earth. Examples of debris include non-operational satellites, rocket bodies, and fragments generated from explosions, collisions, or faulty payload assembly.

Loading next visibility...
Identifier
61354, 2024-140VT
Orbit
LEO
Country
Flag of CNCN / PRC
Related business
Manufacturer
SAST
Mission
Spacecraft
Bus & Motor
Unknown
Mass
Unknown
Launch date (UTC)
2024-08-06 (2 years ago)
Launch vehicle
Unknown
Launch site
Taiyaun Space Center, China (TSC)
Object type
Payload
Rocket body
Debris
Shape & HBR
Unknown shape, 0.1 m
Radar Cross Section
Medium (>0.1 m² and <1 m²)

Expand to show TLE details & history
Last TLE update: 16 hours ago

TLE from 16 hours ago
0 CZ-6A DEB
1 61354U 24140VT  26171.30891617  .00001908  00000-0  35428-3 0  9995
2 61354  89.0176 270.6061 0110677 229.8874 129.2601 14.60904104 95550
Epoch: 2026-06-20T07:24Z
TLE epoch observation values (Epoch: 2026-06-20T07:24:50.357Z)
Latitude
0.00004°
Longitude
-109.12911°
Altitude
743.4 km
Speed
7.457 km/s
True Right ascension
18h 02m 25s
True Declination
0° 00' 00"
Sunlit
Object was in full shadow at epoch
Visualization orbit readout
Latitude
Unknown
Longitude
Unknown
Altitude
Unknown
Speed
Unknown
Apparent Right ascension
Unknown
Apparent Declination
Unknown
Sunlit
N/A
Visualization observer readout
Local Sidereal Time
10:18:00
Azimuth
Unknown
Elevation
Unknown
Doppler factor
Unknown
Orbital elements
Apogee altitude
765.345 km
Perigee altitude
608.952 km
Semi-major axis
7,065.285 km
Eccentricity
0.01107
Inclination
89.0176°
RAAN
270.6061°
Arg. of periapsis
229.8874°
True anomaly
130.23352°
Mean anomaly
129.2601°
Eccentric anomaly
129.74766°
Mean motion
3.65467 °/min
Orbital period
98.5 mins
BSTAR
0.00035428
Loading maneuver chart data...
Computing Atmospheric mass density...
Loading historical data...
Loading historical data...
Loading historical data...
Loading historical data...
Loading historical data...
Loading historical data...
Loading historical data...

Documentation

Showing up to 5 results
|